Location: Drignac
(45.1667°N, 2.0333°E)
Time: 12:40:25
(UTC+00:00)

Resurs 01 Rocket - Pass Details

Date: 29 March 2020
Orbit: 635 x 643 km, 98.0° (Epoch: 26 May)

Event Time Altitude Azimuth Distance (km) Brightness Sun altitude
Exits shadow 19:53:04 33° 119° (ESE) 1,061 2.2 -17.2°
Maximum altitude 19:54:29 46° 71° (ENE) 859 1.9 -17.4°
Drops below altitude 10° 19:58:43 10° 358° (N) 2,033 4.5 -18.1°
Sets 20:00:59 0° 353° (N) 2,947 5.5 -18.5°
